Check out our new BloomSky Weather System.

Active alerts

Houston, TX
  Details for Houston, TX Areal Flood Advisory


Thunder radar  blitzortung!


Rain radar more information rain snow radar


Visit our other weather sites:

Template documentation
and downloads

And another site



Weather Underground History page Text

Daily Summary for February 14, 2017 Units:  Metric    English   Both
« Previous Day
Next Day »
Daily Weekly Monthly Yearly Custom
  High: Low: Average:
Temperature: -17.8 °C 10.7 °C 15.3 °C
Dew Point: -17.8 °C 6.7 °C 13.4 °C
Humidity: Humidity % 76 % 88 %
Wind Speed: 0 km/h 0 km/h 6 km/h
Wind Gust: 0 km/h - -
Wind:- - SW
Pressure: 0 hPa 1007 hPa -
Precipitation: 30.23 mm    
Historical Graphs
 
 
Tabular Data for February 14, 2017
Time Temperature Dew Point Pressure Wind Wind Speed Wind Gust Humidity Rainfall Rate (Hourly)
-17.8 °C -17.8 °C 0 hPa Calm     Humidity % 0 mm
00:03 19.6 °C 17.9 °C 1013.1 hPa SSE 6.4 km/h 11.3 km/h 90 % 0 mm
00:08 19.6 °C 17.9 °C 1013.1 hPa SE 6.4 km/h 12.9 km/h 90 % 0 mm
00:13 19.7 °C 18 °C 1012.8 hPa SE 4.8 km/h 12.9 km/h 90 % 0 mm
00:18 19.7 °C 18 °C 1012.8 hPa SE 3.2 km/h 16.1 km/h 90 % 0 mm
00:23 19.7 °C 18 °C 1012.8 hPa SE 8 km/h 16.1 km/h 90 % 0 mm
00:28 19.7 °C 18 °C 1012.8 hPa SE 11.3 km/h 16.1 km/h 90 % 0 mm
00:33 19.7 °C 18 °C 1012.8 hPa SSE 8 km/h 16.1 km/h 90 % 0 mm
00:38 19.7 °C 18 °C 1012.8 hPa SE 3.2 km/h 16.1 km/h 90 % 0 mm
00:43 19.7 °C 18 °C 1012.8 hPa East 8 km/h 16.1 km/h 90 % 0 mm
00:48 19.7 °C 18 °C 1012.8 hPa ESE 6.4 km/h 12.9 km/h 90 % 0 mm
00:53 19.7 °C 18 °C 1012.8 hPa SSE 8 km/h 11.3 km/h 90 % 0 mm
00:58 19.7 °C 18 °C 1012.4 hPa SE 3.2 km/h 17.7 km/h 90 % 0 mm
01:03 19.7 °C 18 °C 1012.4 hPa SE 8 km/h 17.7 km/h 90 % 0 mm
01:08 19.7 °C 18 °C 1012.4 hPa SE 11.3 km/h 17.7 km/h 90 % 0 mm
01:13 19.7 °C 18 °C 1012.4 hPa ESE 6.4 km/h 14.5 km/h 90 % 0 mm
01:18 19.7 °C 18 °C 1012.4 hPa SE 8 km/h 14.5 km/h 90 % 0 mm
01:23 19.7 °C 18 °C 1012.1 hPa SE 3.2 km/h 16.1 km/h 90 % 0 mm
01:28 19.8 °C 18.1 °C 1012.1 hPa ESE 6.4 km/h 16.1 km/h 90 % 0 mm
01:33 19.8 °C 18.1 °C 1012.1 hPa ESE 6.4 km/h 16.1 km/h 90 % 0 mm
01:38 19.7 °C 18 °C 1011.7 hPa ESE 6.4 km/h 14.5 km/h 90 % 0 mm
01:43 19.7 °C 18 °C 1011.7 hPa East 6.4 km/h 12.9 km/h 90 % 0 mm
01:49 19.7 °C 18 °C 1011.7 hPa ESE 6.4 km/h 12.9 km/h 90 % 0 mm
01:54 19.7 °C 18.2 °C 1011.7 hPa East 3.2 km/h 14.5 km/h 91 % 0 mm
01:59 19.7 °C 18.2 °C 1011.4 hPa ESE 12.9 km/h 14.5 km/h 91 % 0 mm
02:03 19.7 °C 18.2 °C 1011.4 hPa ESE 4.8 km/h 14.5 km/h 91 % 0 mm
02:08 19.7 °C 18.2 °C 1011.4 hPa ESE 4.8 km/h 12.9 km/h 91 % 0 mm
02:14 19.7 °C 18.2 °C 1011.4 hPa ESE 9.7 km/h 12.9 km/h 91 % 0 mm
02:19 19.7 °C 18.2 °C 1011.4 hPa SSE 4.8 km/h 12.9 km/h 91 % 0 mm
02:24 19.6 °C 18.1 °C 1011.1 hPa SE 3.2 km/h 12.9 km/h 91 % 0 mm
02:29 19.6 °C 18.1 °C 1011.1 hPa ESE 1.6 km/h 12.9 km/h 91 % 0 mm
02:34 19.6 °C 18.3 °C 1011.1 hPa SE 6.4 km/h 9.7 km/h 92 % 0 mm
02:39 19.6 °C 18.3 °C 1011.1 hPa ESE 6.4 km/h 8 km/h 92 % 0 mm
02:44 19.6 °C 18.3 °C 1011.1 hPa SE 6.4 km/h 9.7 km/h 92 % 0 mm
02:49 19.7 °C 18.4 °C 1011.1 hPa SE 3.2 km/h 11.3 km/h 92 % 0 mm
02:54 19.7 °C 18.4 °C 1011.1 hPa ESE 3.2 km/h 11.3 km/h 92 % 0 mm
02:59 19.7 °C 18.4 °C 1011.1 hPa Calm   11.3 km/h 92 % 0 mm
03:04 19.7 °C 18.4 °C 1011.1 hPa SE 3.2 km/h 8 km/h 92 % 0 mm
03:09 19.7 °C 18.4 °C 1011.1 hPa ESE 3.2 km/h 6.4 km/h 92 % 0 mm
03:14 19.7 °C 18.4 °C 1011.1 hPa SSE 3.2 km/h 9.7 km/h 92 % 0 mm
03:19 19.7 °C 18.4 °C 1011.1 hPa East 3.2 km/h 9.7 km/h 92 % 0 mm
03:24 19.7 °C 18.4 °C 1011.1 hPa ESE 6.4 km/h 9.7 km/h 92 % 0 mm
03:29 19.8 °C 18.5 °C 1011.1 hPa SSE 3.2 km/h 8 km/h 92 % 0 mm
03:34 19.8 °C 18.5 °C 1011.1 hPa SE 1.6 km/h 8 km/h 92 % 0 mm
03:39 19.8 °C 18.5 °C 1011.1 hPa SE 6.4 km/h 6.4 km/h 92 % 0 mm
03:44 19.9 °C 18.6 °C 1011.1 hPa SSE 1.6 km/h 8 km/h 92 % 0 mm
03:49 19.9 °C 18.6 °C 1011.1 hPa SE 4.8 km/h 8 km/h 92 % 0 mm
03:54 20 °C 18.7 °C 1011.1 hPa SE 1.6 km/h 8 km/h 92 % 0 mm
03:59 19.9 °C 18.6 °C 1010.7 hPa SE 1.6 km/h 8 km/h 92 % 0 mm
04:04 19.9 °C 18.6 °C 1010.4 hPa ESE 3.2 km/h 6.4 km/h 92 % 0 mm
04:09 19.9 °C 18.6 °C 1010.4 hPa ESE 3.2 km/h 12.9 km/h 92 % 0 mm
04:14 19.9 °C 18.6 °C 1010 hPa SE 3.2 km/h 12.9 km/h 92 % 0 mm
04:19 19.8 °C 18.5 °C 1010 hPa ESE 3.2 km/h 12.9 km/h 92 % 0 mm
04:24 19.8 °C 18.5 °C 1010 hPa ESE 4.8 km/h 8 km/h 92 % 0 mm
04:29 19.8 °C 18.5 °C 1010 hPa NE 3.2 km/h 6.4 km/h 92 % 0 mm
04:34 19.8 °C 18.5 °C 1010 hPa SE 8 km/h 8 km/h 92 % 0 mm
04:39 19.9 °C 18.6 °C 1010 hPa ESE 3.2 km/h 11.3 km/h 92 % 0 mm
04:44 19.9 °C 18.6 °C 1010 hPa SSE 3.2 km/h 14.5 km/h 92 % 0 mm
04:49 19.9 °C 18.6 °C 1010 hPa SSE 3.2 km/h 14.5 km/h 92 % 0 mm
04:54 19.9 °C 18.6 °C 1010 hPa ESE 1.6 km/h 14.5 km/h 92 % 0 mm
04:59 19.9 °C 18.6 °C 1010 hPa ESE 1.6 km/h 9.7 km/h 92 % 0 mm
05:04 19.9 °C 18.6 °C 1010 hPa South 3.2 km/h 8 km/h 92 % 0 mm
05:09 19.8 °C 18.5 °C 1009.7 hPa ENE 6.4 km/h 9.7 km/h 92 % 0 mm
05:14 19.8 °C 18.6 °C 1009.7 hPa SE 3.2 km/h 9.7 km/h 93 % 0 mm
05:19 19.8 °C 18.6 °C 1009.4 hPa SE 9.7 km/h 9.7 km/h 93 % 0 mm
05:24 19.8 °C 18.6 °C 1009.4 hPa ESE 6.4 km/h 11.3 km/h 93 % 0 mm
05:29 19.7 °C 18.5 °C 1009 hPa ESE 8 km/h 11.3 km/h 93 % 0 mm
05:34 19.7 °C 18.5 °C 1008.7 hPa SSE 6.4 km/h 12.9 km/h 93 % 0 mm
05:39 19.6 °C 18.4 °C 1008.7 hPa SE 3.2 km/h 12.9 km/h 93 % 0 mm
05:44 19.6 °C 18.4 °C 1008.4 hPa East 3.2 km/h 12.9 km/h 93 % 0 mm
05:49 19.6 °C 18.4 °C 1008.4 hPa SSE 4.8 km/h 16.1 km/h 93 % 0 mm
05:54 19.6 °C 18.4 °C 1008.4 hPa SE 9.7 km/h 16.1 km/h 93 % 0 mm
05:59 19.6 °C 18.4 °C 1008.4 hPa East 3.2 km/h 16.1 km/h 93 % 0 mm
06:04 19.6 °C 18.4 °C 1008.4 hPa East 3.2 km/h 12.9 km/h 93 % 0 mm
06:10 19.6 °C 18.4 °C 1008.4 hPa NE 3.2 km/h 11.3 km/h 93 % 0 mm
06:15 19.6 °C 18.4 °C 1008.4 hPa East 3.2 km/h 11.3 km/h 93 % 0 mm
06:20 19.6 °C 18.4 °C 1008 hPa ESE 3.2 km/h 11.3 km/h 93 % 0 mm
06:25 19.7 °C 18.5 °C 1007.7 hPa ESE 6.4 km/h 11.3 km/h 93 % 0 mm
06:30 19.7 °C 18.5 °C 1007.7 hPa SE 9.7 km/h 11.3 km/h 93 % 0 mm
06:35 19.7 °C 18.5 °C 1007.7 hPa SSE 3.2 km/h 12.9 km/h 93 % 0 mm
06:40 19.7 °C 18.5 °C 1007.3 hPa SE 4.8 km/h 14.5 km/h 93 % 0 mm
06:45 19.8 °C 18.6 °C 1007.3 hPa ESE 11.3 km/h 14.5 km/h 93 % 0 mm
06:50 19.8 °C 18.6 °C 1007.3 hPa East 3.2 km/h 14.5 km/h 93 % 0 mm
06:55 19.8 °C 18.6 °C 1007 hPa East 8 km/h 16.1 km/h 93 % 0 mm
07:00 19.8 °C 18.6 °C 1007 hPa SSE 1.6 km/h 16.1 km/h 93 % 0 mm
07:05 19.9 °C 18.7 °C 1007.3 hPa East 12.9 km/h 19.3 km/h 93 % 0 mm
07:10 19.9 °C 18.6 °C 1007.3 hPa SE 1.6 km/h 19.3 km/h 92 % 0 mm
07:15 19.9 °C 18.6 °C 1007.3 hPa SSE 1.6 km/h 19.3 km/h 92 % 0 mm
07:20 19.9 °C 18.6 °C 1007.7 hPa SSE 3.2 km/h 17.7 km/h 92 % 0 mm
07:25 19.9 °C 18.6 °C 1007.7 hPa SE 4.8 km/h 16.1 km/h 92 % 0 mm
07:30 20 °C 18.7 °C 1007.7 hPa East 6.4 km/h 11.3 km/h 92 % 0 mm
07:35 20 °C 18.8 °C 1007.7 hPa South 6.4 km/h 11.3 km/h 93 % 0 mm
07:40 20 °C 18.8 °C 1007.7 hPa SE 1.6 km/h 12.9 km/h 93 % 0 mm
07:45 20 °C 18.8 °C 1008 hPa SE 11.3 km/h 14.5 km/h 93 % 0 mm
07:50 20 °C 18.8 °C 1007.7 hPa ESE 3.2 km/h 14.5 km/h 93 % 0 mm
07:55 19.9 °C 18.7 °C 1007.7 hPa SSE 6.4 km/h 14.5 km/h 93 % 0.25 mm
08:01 19.9 °C 18.9 °C 1007.7 hPa SSE 6.4 km/h 14.5 km/h 94 % 0.51 mm
08:06 19.9 °C 18.9 °C 1007.7 hPa SE 9.7 km/h 14.5 km/h 94 % 0.76 mm
08:11 19.9 °C 18.9 °C 1007.7 hPa SE 4.8 km/h 20.9 km/h 94 % 1.02 mm
08:16 20 °C 19 °C 1007.7 hPa SE 8 km/h 20.9 km/h 94 % 1.27 mm
08:21 20 °C 19 °C 1007.7 hPa SSE 4.8 km/h 20.9 km/h 94 % 1.27 mm
08:26 20 °C 19 °C 1008 hPa SE 3.2 km/h 17.7 km/h 94 % 1.52 mm
08:31 20 °C 19.2 °C 1008.7 hPa Calm   17.7 km/h 95 % 2.03 mm
08:36 19 °C 17 °C 1009.4 hPa West 4.8 km/h 14.5 km/h 88 % 2.29 mm
08:41 17.6 °C 15.9 °C 1009.4 hPa WNW 8 km/h 19.3 km/h 90 % 5.59 mm
08:46 16.2 °C 14.9 °C 1009 hPa NW 4.8 km/h 19.3 km/h 92 % 12.45 mm
08:51 15.6 °C 14.8 °C 1009 hPa NW 6.4 km/h 20.9 km/h 95 % 14.48 mm
08:56 15.1 °C 14.3 °C 1009.4 hPa NNW 6.4 km/h 24.1 km/h 95 % 15.24 mm
09:01 14.7 °C 14.1 °C 1009.7 hPa NNW 1.6 km/h 24.1 km/h 96 % 15.49 mm
09:06 14.5 °C 14 °C 1011.1 hPa South 8 km/h 24.1 km/h 97 % 18.29 mm
09:11 14.5 °C 14 °C 1009.4 hPa WNW 3.2 km/h 16.1 km/h 97 % 21.84 mm
09:16 14.2 °C 13.7 °C 1010.7 hPa NW 6.4 km/h 14.5 km/h 97 % 25.4 mm
09:21 14 °C 13.5 °C 1011.1 hPa NNE 6.4 km/h 14.5 km/h 97 % 25.65 mm
09:26 13.9 °C 13.4 °C 1010.7 hPa NNW 8 km/h 14.5 km/h 97 % 25.65 mm
09:31 13.7 °C 13.2 °C 1010.4 hPa NNW 11.3 km/h 17.7 km/h 97 % 25.4 mm
09:36 13.6 °C 13.1 °C 1010.7 hPa NW 16.1 km/h 20.9 km/h 97 % 25.15 mm
09:41 13.6 °C 13.3 °C 1010 hPa WNW 14.5 km/h 20.9 km/h 98 % 21.84 mm
09:46 13.5 °C 13.2 °C 1010.4 hPa WNW 24.1 km/h 27.4 km/h 98 % 14.73 mm
09:51 13.4 °C 13.1 °C 1011.1 hPa WNW 6.4 km/h 27.4 km/h 98 % 13.21 mm
09:56 13.3 °C 13 °C 1011.1 hPa WNW 12.9 km/h 27.4 km/h 98 % 12.45 mm
10:01 13.3 °C 13 °C 1011.1 hPa WNW 9.7 km/h 24.1 km/h 98 % 12.19 mm
10:06 13.3 °C 13 °C 1011.1 hPa NW 3.2 km/h 19.3 km/h 98 % 9.4 mm
10:11 13.4 °C 13.1 °C 1010.7 hPa NW 3.2 km/h 17.7 km/h 98 % 5.59 mm
10:16 13.4 °C 13.1 °C 1010.4 hPa WNW 4.8 km/h 16.1 km/h 98 % 2.79 mm
10:21 13.4 °C 13.1 °C 1010.7 hPa WNW 3.2 km/h 16.1 km/h 98 % 3.05 mm
10:26 13.4 °C 13.1 °C 1010.4 hPa NW 3.2 km/h 16.1 km/h 98 % 2.79 mm
10:31 13.4 °C 13.1 °C 1010 hPa Calm   12.9 km/h 98 % 2.54 mm
10:36 13.5 °C 13.2 °C 1010 hPa ENE 1.6 km/h 11.3 km/h 98 % 2.79 mm
10:41 13.6 °C 13.3 °C 1010 hPa Calm   11.3 km/h 98 % 2.79 mm
10:46 13.7 °C 13.4 °C 1010 hPa NW 4.8 km/h 6.4 km/h 98 % 2.54 mm
10:51 13.8 °C 13.6 °C 1009.7 hPa NW 1.6 km/h 9.7 km/h 99 % 2.54 mm
10:56 13.9 °C 13.7 °C 1009.4 hPa Calm   9.7 km/h 99 % 2.29 mm
11:01 14.1 °C 13.9 °C 1009.4 hPa North 1.6 km/h 9.7 km/h 99 % 2.03 mm
11:06 14.2 °C 14 °C 1009.4 hPa North 4.8 km/h 9.7 km/h 99 % 1.78 mm
11:12 14.4 °C 14.2 °C 1009.4 hPa NW 4.8 km/h 9.7 km/h 99 % 1.27 mm
11:17 14.6 °C 14.4 °C 1009.4 hPa NW 3.2 km/h 9.7 km/h 99 % 0.76 mm
11:22 14.6 °C 14.3 °C 1009.4 hPa NNE 6.4 km/h 9.7 km/h 98 % 0.25 mm
11:27 14.6 °C 14.3 °C 1009.7 hPa NE 3.2 km/h 14.5 km/h 98 % 0.25 mm
11:32 14.6 °C 14.3 °C 1009.4 hPa NNW 1.6 km/h 14.5 km/h 98 % 0 mm
11:37 14.6 °C 14.3 °C 1009.4 hPa ESE 1.6 km/h 14.5 km/h 98 % 0 mm
11:42 14.6 °C 14.3 °C 1009.4 hPa NNW 11.3 km/h 11.3 km/h 98 % 0 mm
11:47 14.6 °C 14.3 °C 1009.4 hPa East 3.2 km/h 11.3 km/h 98 % 0 mm
11:52 14.9 °C 14.6 °C 1009.4 hPa NNW 4.8 km/h 11.3 km/h 98 % 0 mm
11:57 14.9 °C 14.6 °C 1009.4 hPa North 1.6 km/h 11.3 km/h 98 % 0 mm
12:02 15.2 °C 14.9 °C 1009.4 hPa NNW 3.2 km/h 9.7 km/h 98 % 0 mm
12:07 15.2 °C 14.9 °C 1009.4 hPa Calm   9.7 km/h 98 % 0 mm
12:12 15.3 °C 15 °C 1009.4 hPa NE 6.4 km/h 6.4 km/h 98 % 0 mm
12:17 15.4 °C 15.1 °C 1009.4 hPa NNW 3.2 km/h 9.7 km/h 98 % 0 mm
12:22 15.7 °C 15.4 °C 1009.7 hPa WNW 6.4 km/h 9.7 km/h 98 % 0 mm
12:27 15.8 °C 15.5 °C 1010.7 hPa NW 4.8 km/h 9.7 km/h 98 % 0 mm
12:32 15.8 °C 15.3 °C 1010.7 hPa WSW 1.6 km/h 12.9 km/h 97 % 0 mm
12:37 15.8 °C 15.3 °C 1010.7 hPa NNW 3.2 km/h 12.9 km/h 97 % 0 mm
12:42 15.9 °C 15.3 °C 1010.7 hPa West 6.4 km/h 12.9 km/h 96 % 0 mm
12:47 16.1 °C 15.3 °C 1010.4 hPa NW 8 km/h 17.7 km/h 95 % 0 mm
12:52 16.3 °C 15.2 °C 1010.4 hPa SSE 3.2 km/h 17.7 km/h 93 % 0 mm
12:57 16.2 °C 14.9 °C 1010.4 hPa NW 4.8 km/h 20.9 km/h 92 % 0 mm
13:02 16.2 °C 14.7 °C 1010.4 hPa NW 3.2 km/h 20.9 km/h 91 % 0 mm
13:07 15.9 °C 14.1 °C 1010.4 hPa NE 9.7 km/h 20.9 km/h 89 % 0 mm
13:12 15.1 °C 13.1 °C 1010.4 hPa NW 6.4 km/h 19.3 km/h 88 % 0 mm
13:17 14.6 °C 12.8 °C 1010.4 hPa NNW 3.2 km/h 25.7 km/h 89 % 0 mm
13:22 14 °C 12.4 °C 1010.4 hPa NNE 9.7 km/h 25.7 km/h 90 % 0 mm
13:27 13.6 °C 12 °C 1010.4 hPa ESE 8 km/h 25.7 km/h 90 % 0 mm
13:32 13.1 °C 11.7 °C 1010.7 hPa SE 4.8 km/h 22.5 km/h 91 % 0 mm
13:37 12.7 °C 11.3 °C 1010.7 hPa NNW 4.8 km/h 20.9 km/h 91 % 0 mm
13:42 12.6 °C 11.3 °C 1010.7 hPa NNE 11.3 km/h 19.3 km/h 92 % 0 mm
13:47 12.5 °C 11.2 °C 1010.7 hPa NNW 8 km/h 19.3 km/h 92 % 0 mm
13:52 12.3 °C 11 °C 1010.7 hPa South 4.8 km/h 19.3 km/h 92 % 0 mm
13:57 12.3 °C 10.9 °C 1010.7 hPa WNW 8 km/h 22.5 km/h 91 % 0 mm
14:02 12.1 °C 10.7 °C 1010.7 hPa WNW 12.9 km/h 22.5 km/h 91 % 0 mm
14:07 12 °C 10.6 °C 1010.7 hPa WNW 4.8 km/h 29 km/h 91 % 0 mm
14:12 12 °C 10.7 °C 1010.7 hPa Calm   29 km/h 92 % 0 mm
14:17 11.9 °C 10.5 °C 1010.7 hPa WSW 8 km/h 33.8 km/h 91 % 0 mm
14:22 11.7 °C 10.3 °C 1010.7 hPa NW 12.9 km/h 33.8 km/h 91 % 0 mm
14:27 11.7 °C 10.3 °C 1011.1 hPa WNW 8 km/h 33.8 km/h 91 % 0 mm
14:32 11.7 °C 10.3 °C 1011.1 hPa NW 3.2 km/h 22.5 km/h 91 % 0 mm
14:38 11.7 °C 10.3 °C 1011.1 hPa NE 4.8 km/h 20.9 km/h 91 % 0 mm
14:43 11.6 °C 10 °C 1011.1 hPa NNW 3.2 km/h 24.1 km/h 90 % 0 mm
14:48 11.6 °C 10 °C 1011.1 hPa NW 4.8 km/h 27.4 km/h 90 % 0 mm
14:53 11.4 °C 9.8 °C 1011.1 hPa WSW 14.5 km/h 27.4 km/h 90 % 0 mm
14:58 11.4 °C 9.8 °C 1011.1 hPa NW 6.4 km/h 27.4 km/h 90 % 0 mm
15:03 11.3 °C 9.7 °C 1011.1 hPa NNW 4.8 km/h 20.9 km/h 90 % 0 mm
15:08 11.4 °C 10 °C 1011.1 hPa NNW 11.3 km/h 20.9 km/h 91 % 0 mm
15:13 11.5 °C 9.9 °C 1011.1 hPa NNW 4.8 km/h 19.3 km/h 90 % 0 mm
15:18 11.7 °C 10.1 °C 1010.7 hPa North 9.7 km/h 19.3 km/h 90 % 0 mm
15:23 11.8 °C 10 °C 1010.7 hPa NW 4.8 km/h 19.3 km/h 89 % 0 mm
15:28 12 °C 10.1 °C 1010.7 hPa WNW 4.8 km/h 17.7 km/h 88 % 0 mm
15:33 12.1 °C 10 °C 1011.1 hPa NNW 4.8 km/h 19.3 km/h 87 % 0 mm
15:38 12.3 °C 10.4 °C 1011.1 hPa North 8 km/h 20.9 km/h 88 % 0 mm
15:43 12.4 °C 10.3 °C 1011.1 hPa WNW 6.4 km/h 20.9 km/h 87 % 0 mm
15:48 12.5 °C 10.2 °C 1011.1 hPa NNW 1.6 km/h 20.9 km/h 86 % 0 mm
15:53 12.7 °C 10.4 °C 1010.7 hPa NW 11.3 km/h 17.7 km/h 86 % 0 mm
15:58 12.8 °C 10.3 °C 1011.1 hPa North 3.2 km/h 17.7 km/h 85 % 0 mm
16:03 12.9 °C 10.3 °C 1011.1 hPa NNW 11.3 km/h 19.3 km/h 84 % 0 mm
16:08 13.1 °C 10.3 °C 1011.1 hPa WSW 6.4 km/h 19.3 km/h 83 % 0 mm
16:13 13.3 °C 10.5 °C 1010.7 hPa NNW 8 km/h 19.3 km/h 83 % 0 mm
16:18 13.4 °C 10.2 °C 1010.7 hPa WNW 4.8 km/h 17.7 km/h 81 % 0 mm
16:23 13.6 °C 10.6 °C 1011.1 hPa NNW 6.4 km/h 17.7 km/h 82 % 0 mm
16:28 13.6 °C 10.4 °C 1011.1 hPa NE 3.2 km/h 17.7 km/h 81 % 0 mm
16:33 13.7 °C 10.5 °C 1010.7 hPa NW 3.2 km/h 16.1 km/h 81 % 0 mm
16:38 13.9 °C 10.7 °C 1010.7 hPa West 11.3 km/h 16.1 km/h 81 % 0 mm
16:43 14 °C 10.6 °C 1010.7 hPa NW 1.6 km/h 20.9 km/h 80 % 0 mm
16:48 14.1 °C 10.7 °C 1011.1 hPa NNW 8 km/h 20.9 km/h 80 % 0 mm
16:53 14.1 °C 10.5 °C 1011.1 hPa NW 11.3 km/h 20.9 km/h 79 % 0 mm
16:58 14.1 °C 10.5 °C 1011.1 hPa WNW 8 km/h 16.1 km/h 79 % 0 mm
17:03 13.9 °C 10.3 °C 1011.1 hPa West 4.8 km/h 16.1 km/h 79 % 0 mm
17:08 13.8 °C 10.4 °C 1011.1 hPa NW 6.4 km/h 16.1 km/h 80 % 0 mm
17:18 13.7 °C 10.3 °C 1011.1 hPa NW 8 km/h 16.1 km/h 80 % 0 mm
17:23 13.6 °C 10.2 °C 1011.1 hPa NW 4.8 km/h 16.1 km/h 80 % 0 mm
17:33 13.6 °C 10.4 °C 1011.1 hPa WNW 1.6 km/h 17.7 km/h 81 % 0 mm
17:38 13.5 °C 10.3 °C 1011.4 hPa NNW 1.6 km/h 17.7 km/h 81 % 0 mm
17:43 13.5 °C 10.3 °C 1011.4 hPa Calm   14.5 km/h 81 % 0 mm
17:48 13.5 °C 10.5 °C 1011.4 hPa NNW 3.2 km/h 11.3 km/h 82 % 0 mm
17:53 13.5 °C 10.5 °C 1011.7 hPa WNW 1.6 km/h 12.9 km/h 82 % 0 mm
17:59 13.4 °C 10.4 °C 1011.7 hPa NW 1.6 km/h 12.9 km/h 82 % 0 mm
18:03 13.4 °C 10.4 °C 1011.7 hPa NW 4.8 km/h 12.9 km/h 82 % 0 mm
18:09 13.4 °C 10.2 °C 1011.7 hPa WSW 6.4 km/h 8 km/h 81 % 0 mm
18:14 13.4 °C 10.2 °C 1011.7 hPa NNW 3.2 km/h 16.1 km/h 81 % 0 mm
18:19 13.4 °C 10.2 °C 1011.7 hPa NW 3.2 km/h 17.7 km/h 81 % 0 mm
18:24 13.4 °C 10.2 °C 1012.1 hPa NW 1.6 km/h 17.7 km/h 81 % 0 mm
18:29 13.4 °C 10.2 °C 1012.1 hPa WSW 1.6 km/h 17.7 km/h 81 % 0 mm
18:34 13.3 °C 10.1 °C 1012.1 hPa NNW 9.7 km/h 12.9 km/h 81 % 0 mm
18:39 13.3 °C 10.1 °C 1012.4 hPa SW 8 km/h 11.3 km/h 81 % 0 mm
18:44 13.2 °C 9.6 °C 1012.4 hPa NW 12.9 km/h 14.5 km/h 79 % 0 mm
18:49 13.1 °C 9.4 °C 1012.4 hPa West 6.4 km/h 20.9 km/h 78 % 0 mm
18:54 12.9 °C 9.3 °C 1012.8 hPa SW 6.4 km/h 20.9 km/h 79 % 0 mm
18:59 12.9 °C 9.5 °C 1012.8 hPa WNW 4.8 km/h 20.9 km/h 80 % 0 mm
19:04 12.8 °C 9.4 °C 1012.8 hPa NNW 8 km/h 19.3 km/h 80 % 0 mm
19:09 12.7 °C 9.3 °C 1012.8 hPa NNW 8 km/h 16.1 km/h 80 % 0 mm
19:14 12.6 °C 9.2 °C 1012.8 hPa NW 3.2 km/h 14.5 km/h 80 % 0 mm
19:19 12.5 °C 9.1 °C 1013.1 hPa NNW 3.2 km/h 19.3 km/h 80 % 0 mm
19:24 12.4 °C 9 °C 1013.1 hPa WSW 4.8 km/h 20.9 km/h 80 % 0 mm
19:29 12.3 °C 8.9 °C 1013.4 hPa NE 1.6 km/h 20.9 km/h 80 % 0 mm
19:34 12.2 °C 8.9 °C 1013.4 hPa NNW 14.5 km/h 20.9 km/h 80 % 0 mm
19:39 12.1 °C 8.8 °C 1013.4 hPa WNW 9.7 km/h 22.5 km/h 80 % 0 mm
19:44 11.9 °C 8.6 °C 1013.4 hPa WNW 4.8 km/h 22.5 km/h 80 % 0 mm
19:49 11.8 °C 8.5 °C 1013.8 hPa North 16.1 km/h 24.1 km/h 80 % 0 mm
19:54 11.8 °C 8.6 °C 1013.8 hPa WSW 6.4 km/h 24.1 km/h 81 % 0 mm
19:59 11.7 °C 8.5 °C 1013.8 hPa West 3.2 km/h 24.1 km/h 81 % 0 mm
20:04 11.6 °C 8.3 °C 1014.1 hPa WSW 9.7 km/h 24.1 km/h 80 % 0 mm
20:09 11.4 °C 8.1 °C 1014.1 hPa WNW 4.8 km/h 27.4 km/h 80 % 0 mm
20:14 11.3 °C 8.2 °C 1014.4 hPa West 9.7 km/h 27.4 km/h 81 % 0 mm
20:19 11.3 °C 8.2 °C 1014.4 hPa NW 11.3 km/h 27.4 km/h 81 % 0 mm
20:24 11.3 °C 8.2 °C 1014.4 hPa NW 16.1 km/h 24.1 km/h 81 % 0 mm
20:29 11.3 °C 8.2 °C 1014.8 hPa West 9.7 km/h 22.5 km/h 81 % 0 mm
20:34 11.3 °C 8.2 °C 1014.4 hPa NW 8 km/h 22.5 km/h 81 % 0 mm
20:39 11.2 °C 8.1 °C 1014.8 hPa South 1.6 km/h 20.9 km/h 81 % 0 mm
20:44 11.2 °C 7.9 °C 1014.8 hPa NW 11.3 km/h 20.9 km/h 80 % 0 mm
20:49 11.1 °C 7.6 °C 1014.8 hPa North 9.7 km/h 24.1 km/h 79 % 0 mm
20:54 11.1 °C 7.8 °C 1015.1 hPa WSW 12.9 km/h 24.1 km/h 80 % 0 mm
20:59 11.1 °C 7.8 °C 1015.1 hPa NW 4.8 km/h 24.1 km/h 80 % 0 mm
21:04 11.1 °C 7.8 °C 1015.1 hPa NW 4.8 km/h 22.5 km/h 80 % 0 mm
21:09 11.1 °C 7.8 °C 1015.1 hPa NNW 3.2 km/h 17.7 km/h 80 % 0 mm
21:19 11.1 °C 7.6 °C 1015.1 hPa WNW 12.9 km/h 17.7 km/h 79 % 0 mm
21:24 11.1 °C 7.6 °C 1015.1 hPa NNW 9.7 km/h 19.3 km/h 79 % 0 mm
21:29 11 °C 7.5 °C 1015.1 hPa NNW 12.9 km/h 19.3 km/h 79 % 0 mm
21:34 11 °C 7.5 °C 1015.1 hPa NNW 6.4 km/h 19.3 km/h 79 % 0 mm
21:39 11 °C 7.3 °C 1015.1 hPa NNW 6.4 km/h 19.3 km/h 78 % 0 mm
21:44 11 °C 7.3 °C 1015.5 hPa NW 6.4 km/h 20.9 km/h 78 % 0 mm
21:49 11 °C 7.3 °C 1015.1 hPa NNW 3.2 km/h 22.5 km/h 78 % 0 mm
21:54 11 °C 7.5 °C 1015.5 hPa WNW 3.2 km/h 22.5 km/h 79 % 0 mm
21:59 11 °C 7.5 °C 1015.5 hPa WNW 8 km/h 22.5 km/h 79 % 0 mm
22:04 10.9 °C 7.4 °C 1015.5 hPa West 1.6 km/h 17.7 km/h 79 % 0 mm
22:09 10.9 °C 7 °C 1015.5 hPa NW 8 km/h 17.7 km/h 77 % 0 mm
22:14 10.9 °C 6.8 °C 1015.5 hPa NNW 12.9 km/h 20.9 km/h 76 % 0 mm
22:19 10.9 °C 6.8 °C 1015.5 hPa NNW 6.4 km/h 29 km/h 76 % 0 mm
22:24 10.8 °C 6.7 °C 1015.5 hPa West 9.7 km/h 29 km/h 76 % 0 mm
22:29 10.8 °C 6.7 °C 1015.5 hPa North 11.3 km/h 29 km/h 76 % 0 mm
22:34 10.8 °C 6.7 °C 1015.5 hPa NW 12.9 km/h 22.5 km/h 76 % 0 mm
22:39 10.8 °C 6.7 °C 1015.5 hPa NW 8 km/h 29 km/h 76 % 0 mm
22:44 10.8 °C 6.9 °C 1015.5 hPa NW 8 km/h 29 km/h 77 % 0 mm
22:49 10.7 °C 6.8 °C 1015.5 hPa NNW 12.9 km/h 29 km/h 77 % 0 mm
22:54 10.7 °C 6.8 °C 1015.5 hPa NW 4.8 km/h 27.4 km/h 77 % 0 mm
23:00 10.7 °C 6.8 °C 1015.5 hPa WNW 14.5 km/h 25.7 km/h 77 % 0 mm
23:05 10.7 °C 6.8 °C 1015.5 hPa NW 9.7 km/h 24.1 km/h 77 % 0 mm
23:10 10.7 °C 7 °C 1015.5 hPa NNW 3.2 km/h 24.1 km/h 78 % 0 mm
23:15 10.7 °C 6.8 °C 1015.5 hPa NNW 11.3 km/h 24.1 km/h 77 % 0 mm
23:20 10.7 °C 7 °C 1015.5 hPa Calm   24.1 km/h 78 % 0 mm
23:25 10.7 °C 7 °C 1015.5 hPa NNW 3.2 km/h 24.1 km/h 78 % 0 mm
23:30 10.7 °C 7 °C 1015.8 hPa Calm   17.7 km/h 78 % 0 mm
23:35 10.7 °C 7 °C 1015.8 hPa Calm   17.7 km/h 78 % 0 mm
23:40 10.7 °C 7 °C 1015.8 hPa NNW 1.6 km/h 17.7 km/h 78 % 0 mm
23:45 10.7 °C 7 °C 1015.8 hPa WNW 1.6 km/h 19.3 km/h 78 % 0 mm
23:50 10.7 °C 6.8 °C 1015.8 hPa NNW 16.1 km/h 19.3 km/h 77 % 0 mm
Spring, Texas: Villages of Bridgestone
Compliments of Weather Underground - 2.75 mb

Script developed by  Jim McMurry - jmcmurry@mwt.net Adapted for the template by  Wim van der Kuil - Leuven-Template.eu

You find our weather info also at:

UK Metoffice

WeatherCloud

Weather Underground

Mid-South Weather Network

AWEKAS

Citizen Weather Observer Program (CWOP)

HAMweather, WeatherForYou, PWS Weather

Equipment we use:

Weather-station
Davis Vantage Vue

Weather-program
Meteohub

Weather-server
Debian 7.9 x86 (Guest)

Provider
DreamHost

Davis Vantage Vue

Meteohub

Debian 7.9 x86 (Guest)

DreamHost